Location: Mt. Chestnut Observatory
(40.9038°N, 79.9956°W)
Time: 20:51:02
(UTC-04:00)

Daily predictions for brighter satellites

Satellite Brightness Start Highest point End
(mag) Time Altitude Azimuth Time Altitude Azimuth Time Altitude Azimuth
Cosmos 2221 3.3 20:29:29 10° SSW 20:33:40 56° W 20:37:52 10° N
NOSS 2-1 (C) 3.2 20:32:49 10° SW 20:36:25 87° WNW 20:40:22 10° NE
NOSS 2-1 (D) 3.2 20:33:47 10° SW 20:37:24 83° NW 20:41:21 10° NNE
BREEZE-M DEB (TANK) 3.7 20:32:21 10° WNW 20:37:52 40° NNE 20:40:21 10° E
Cosmos 1340 2.6 20:35:06 10° S 20:38:51 70° E 20:42:39 10° NNE
Thor Agena Rocket 3.7 20:37:03 10° NNE 20:42:13 56° ESE 20:47:23 10° S
Cosmos 2228 Rocket 4.3 20:39:01 10° SE 20:42:27 23° E 20:45:54 10° NE
SL-24 R/B - RUBIN 2 3.5 20:38:16 10° NNW 20:42:39 89° ENE 20:47:02 10° SSE
In-Cosmos 22 Rocket 4.2 20:37:10 10° N 20:42:40 85° W 20:48:00 10° S
Lacrosse 5 4.4 20:41:10 10° NNW 20:43:22 13° N 20:45:35 10° NNE
HJ-1C 4.1 20:41:36 10° S 20:44:53 57° W 20:48:13 10° NNW
ATLAS 2AS CENTAUR R/B 3.3 20:37:16 10° NNW 20:45:04 55° NE 20:52:15 10° SE
OAO 2 Rocket 4.3 20:45:30 10° WSW 20:50:17 37° SSW 20:54:42 11° SE
Cosmos 1805 Rocket 3.9 20:47:15 10° NNW 20:51:35 67° W 20:55:52 10° S
Cosmos 1825 3.8 20:50:14 10° NNE 20:52:55 18° ENE 20:54:54 13° ESE
Spot 2 Rocket 4.0 20:49:42 10° SE 20:54:27 42° ENE 20:59:14 10° N
Cosmos 1328 Rocket 3.8 20:52:10 10° SSE 20:56:24 48° E 21:00:40 10° NNE
Cosmos 2154 Rocket 4.0 20:51:40 10° S 20:57:56 86° E 21:04:11 10° N
ATLAS CENTAUR R/B 1.1 20:54:52 10° SSW 20:58:25 58° ESE 21:02:10 10° NE
SL-8 R/B 3.9 20:53:54 10° SW 20:58:31 50° SE 21:03:10 10° ENE
SL-16 R/B 3.6 21:01:33 13° SE 21:03:44 16° E 21:07:07 10° ENE
Timation 1 Rocket 4.4 20:57:47 10° NNW 21:03:47 81° WSW 21:09:44 10° SSE
Resurs 01 Rocket 1.6 21:02:48 10° SSE 21:07:12 70° ENE 21:11:38 10° N
NOSS 2-1 (E) 4.5 21:04:23 10° SW 21:07:53 44° NW 21:11:50 10° NNE
Cosmos 1470 Rocket 3.9 21:05:27 10° N 21:09:43 47° E 21:13:18 14° SSE
ARGOS 4.3 21:06:46 15° ESE 21:09:57 26° ENE 21:14:16 10° N
SJ-6B 4.3 21:07:18 10° SSW 21:11:06 39° W 21:14:50 10° NNW
Meteor 2-3 Rocket 3.7 21:08:00 10° N 21:13:38 78° E 21:19:16 10° SSE
Cosmos 1939 Rocket 2.9 21:13:54 10° S 21:17:45 74° WSW 21:21:40 10° NNW
Cosmos 2341 Rocket 4.0 21:14:54 10° S 21:21:17 88° E 21:27:38 10° N
Cosmos 1869 4.0 21:19:48 21° SE 21:21:50 33° E 21:25:29 10° NNE
NOSS 3-3 (A) 4.3 21:15:53 10° SW 21:21:54 72° NW 21:28:31 10° NNE
NOSS 3-3 (C) 4.2 21:16:00 10° SW 21:21:59 73° NW 21:28:36 10° NNE
NOSS 0 Rocket 3.9 21:16:45 10° SSW 21:22:53 77° ESE 21:29:06 10° NNE
Cosmos 962 Rocket 4.5 21:16:59 10° S 21:23:06 87° W 21:29:19 10° N
Meteor 2-10 Rocket 4.4 21:20:50 15° SSE 21:24:50 35° E 21:30:02 10° NNE
Cosmos 2218 Rocket 4.2 21:19:59 10° SSE 21:26:06 52° E 21:32:16 10° NNE
Aureole 2 4.2 21:25:36 10° SSW 21:28:37 72° WNW 21:31:34 10° NNE
Cosmos 1980 3.6 21:23:57 10° SSW 21:29:36 77° ESE 21:35:18 10° NNE
USA 267 4.1 21:24:42 10° ENE 21:29:44 23° ESE 21:34:45 10° S
ERS-1 Rocket 4.1 21:30:08 22° E 21:31:55 27° ENE 21:36:04 10° N
Cosmos 407 Rocket 4.4 21:27:51 10° N 21:32:22 30° ENE 21:34:17 24° E
Cosmos 1408 2.5 21:32:52 10° N 21:36:32 72° E 21:38:11 31° SSE
Cosmos 2366 rocket 4.0 21:31:32 10° S 21:37:34 58° E 21:43:44 10° NNE
Cosmos 220 Rocket 4.4 21:33:20 10° NNW 21:37:37 61° WSW 21:40:43 17° S
H-2A R/B 2.8 21:36:33 26° ESE 21:38:20 33° ENE 21:42:45 10° N
Cosmos 1933 Rocket 3.4 21:33:57 10° N 21:38:22 81° E 21:41:04 23° SSE
ERS-2 4.4 21:37:03 10° SSW 21:40:00 23° W 21:42:58 10° NW
Cosmos 2333 Rocket 2.9 21:34:58 10° SW 21:40:31 56° WNW 21:46:05 10° NNE
Resurs 1-3 4.5 21:36:23 10° S 21:40:37 48° W 21:44:53 10° NNW
TRAILBLAZER 4.5 21:36:55 10° SSW 21:41:27 72° ESE 21:46:06 10° NE
Cosmos 1151 Rocket 3.0 21:37:20 10° S 21:41:35 80° W 21:45:53 10° N
Cosmos 1371 Rocket 4.0 21:36:27 10° S 21:41:39 60° ESE 21:46:56 10° NNE
Cosmos 1455 3.6 21:38:28 10° SSW 21:42:04 39° WNW 21:45:43 10° N
USA 186 4.0 21:41:30 10° SW 21:42:44 13° W 21:43:58 10° WNW
Cosmos 1844 Rocket 4.4 21:39:07 10° NW 21:44:00 30° WSW 21:48:50 10° SSW
SL-8 Rocket 4.0 21:40:21 10° S 21:46:40 90° SW 21:52:59 10° N
MetOp-A 4.2 21:51:21 33° SE 21:53:41 61° ENE 21:58:58 10° N
Cosmos 1339 Rocket 4.4 21:48:30 10° N 21:54:35 66° E 21:57:44 30° SSE
Cosmos 2219 Rocket 3.8 21:49:58 10° SW 21:55:11 37° WNW 22:00:24 10° N
Cosmos 2237 Rocket 2.4 21:51:24 10° SSW 21:56:59 70° WNW 22:02:38 10° NNE
Cosmos 1869 Rocket 4.0 21:56:35 10° N 22:00:44 42° ENE 22:00:54 41° E
Cosmos 2056 Rocket 3.4 21:57:44 10° S 22:03:08 75° ESE 22:08:32 10° NNE
Genesis I 4.5 21:59:52 10° NW 22:03:38 36° WSW 22:05:03 27° SSW
Cosmos 2278 Rocket 2.6 22:01:18 10° NNW 22:06:53 61° WSW 22:09:51 28° S
Helios 1A 3.7 22:08:42 38° ENE 22:08:42 38° ENE 22:12:26 10° N
Terra 3.6 22:09:25 18° ENE 22:09:25 18° ENE 22:12:23 10° NNE
ATLAS 5 CENTAUR R/B 4.4 22:06:01 10° N 22:09:18 15° NNE 22:12:36 10° ENE
Cosmos 1862 3.7 22:06:08 10° N 22:09:45 48° ENE 22:09:45 48° ENE
Cosmos 2098 Rocket 3.1 22:07:13 22° SSW 22:10:12 75° W 22:14:04 10° N
Cosmos 405 Rocket 3.5 22:15:04 39° NE 22:15:04 39° NE 22:17:51 10° NNE
Cosmos 405 3.3 22:14:28 10° N 22:17:29 63° NNW 22:17:29 63° NNW
Cosmos 1624 Rocket 4.1 22:14:58 10° SSW 22:20:09 74° WNW 22:25:22 10° NNE
Cosmos 1190 Rocket 3.9 22:18:35 10° NNW 22:23:54 90° NNE 22:24:56 59° SSE
ATLAS 2A CENTAUR R/B 4.3 22:12:05 10° SW 22:26:16 32° S 22:27:52 31° SSE
Cosmos 1140 Rocket 3.8 22:21:56 10° N 22:26:56 47° ENE 22:27:07 47° ENE
Lacrosse 5 4.0 22:24:42 10° NNW 22:28:15 18° NNE 22:30:32 14° NE
SPOT 5 3.0 22:28:34 51° ENE 22:28:34 51° ENE 22:32:37 10° N
Cosmos 1825 4.0 22:25:15 10° NNW 22:28:29 27° W 22:29:46 22° WSW
ATLAS 2AS CENTAUR R/B 4.0 22:28:53 10° NW 22:35:44 35° WSW 22:39:43 21° SSW
Cosmos 1954 Rocket 4.1 22:31:37 10° NNW 22:36:47 60° ENE 22:36:48 60° ENE
ATLAS CENTAUR R/B 4.4 22:35:45 10° WNW 22:37:48 14° NW 22:39:54 10° N
GEOS 3 Rocket 3.5 22:35:58 10° NE 22:41:21 88° SE 22:43:43 34° SW
SL-16 R/B 2.4 22:43:11 20° SW 22:47:12 68° WNW 22:52:51 10° NNE
CZ-2C R/B 4.4 22:49:11 23° NE 22:49:11 23° NE 22:52:01 10° NNE
ARGOS 4.1 22:48:16 33° SW 22:49:56 42° W 22:55:01 10° NNW
Cosmos 2344 3.4 22:43:37 10° SSW 22:51:12 75° ESE 22:59:25 10° NE
SL-19 R/B 4.1 22:53:15 77° E 22:53:23 77° ENE 22:58:58 10° NNW
Cosmos 1000 Rocket 4.3 22:47:22 10° N 22:53:37 84° E 22:54:15 73° SSE
Cosmos 1943 Rocket 3.8 22:50:26 10° N 22:54:32 21° NE 22:54:37 21° NE
Cosmos 1821 Rocket 3.9 22:57:37 71° S 22:58:22 86° E 23:04:43 10° N
DMSP B5D2-2 4.2 22:58:57 10° N 23:04:11 70° WNW 23:04:24 69° W
NOSS 3-4 (A) 4.0 22:59:35 10° NW 23:06:37 64° WSW 23:07:53 56° SSW
NOSS 3-4 (C) 4.0 22:59:41 10° NW 23:06:43 65° WSW 23:07:59 57° SSW
Cosmos 1420 Rocket 4.4 23:08:01 58° NNE 23:08:01 58° NNE 23:12:17 10° NNE
SPOT 1/Viking Rocket 3.8 23:09:39 65° W 23:09:39 65° W 23:14:35 10° NNW
ERS-1 Rocket 4.1 23:10:08 35° WSW 23:10:31 36° W 23:15:09 10° NNW
USA 267 3.1 23:06:40 10° NE 23:13:14 89° NW 23:19:47 10° SW
Cosmos 614 Rocket 4.4 23:08:24 10° NNW 23:12:58 59° WNW 23:12:58 59° WNW
Cosmos 2123 Rocket 4.0 23:09:53 10° N 23:15:50 71° NE 23:15:50 71° NE
H-2A R/B 3.5 23:17:10 27° WSW 23:17:44 28° W 23:22:01 10° NW
Cosmos 2369 Rocket 3.0 23:20:44 10° NNW 23:25:18 44° NNE 23:25:18 44° NNE
Helios 1B rocket 4.2 23:22:33 10° N 23:25:09 31° NNW 23:25:09 31° NNW
CZ-2C R/B 3.9 23:36:36 10° NNE 23:39:33 33° NNE 23:39:33 33° NNE
CZ-4C R/B 3.0 23:44:41 46° N 23:44:41 46° N 23:49:03 10° NNE
USA 234 3.7 23:45:38 50° NE 23:46:17 52° NNE 23:52:35 10° NW
Terra 3.3 23:48:17 34° NW 23:48:17 34° NW 23:51:12 10° NNW
Cosmos 1605 Rocket 4.2 23:49:31 68° NNW 23:49:31 68° NNW 23:55:06 10° N
